Powrót do katalogu

STARLINK-35924

AktywnyŁącznośćVLEO
NORAD 66516·PAYLOAD·🇺🇸 United States

Wystrzelony Nov 19, 2025 z Cape Canaveral Space Force Station

Loading…

Następne Przeloty (najbliższe 24 godziny)

TLE

ŚwieżeSource: CelesTrak SupGP

Epoka: Sep 14, 2026, 15:43 UTC

1 66516C 25265A   26257.65534722  .00022891  00000+0  82905-3 0  2575
2 66516  43.0004 290.5053 0001558 274.2084 182.1423 15.27568796    15

Śledź STARLINK-35924 w czasie rzeczywistym z AllMySat

Download on the App Store